Regional Weather Roundup
Issued by NWS Newport/Morehead, NC

Current Version | Previous Version | Graphics & Text | Print | Product List | Glossary On
Versions: 1 2 3 4 5 6 7 8 9 10 11 12 13 14 15 16 17 18 19 20 21 22 23 24 25 26 27 28 29 30 31 32 33 34 35 36 37 38 39 40 41 42 43 44 45 46 47 48 49 50
412 ASUS42 KMHX 250313 RWRMHX WEATHER ROUNDUP FOR EASTERN NORTH CAROLINA NATIONAL WEATHER SERVICE NEWPORT/MOREHEAD CITY NC 1100 PM EDT FRI MAR 24 2017 NOTE: "FAIR" INDICATES FEW OR NO CLOUDS BELOW 12,000 FEET WITH NO SIGNIFICANT WEATHER AND/OR OBSTRUCTIONS TO VISIBILITY NCZ015>017-031-032-045>047-102-103-250400- NORTH COAST CITY SKY/WX TMP DP RH WIND PRES REMARKS EDENTON CLEAR 59 50 72 SW9 30.35S ELIZABETH CITY CLOUDY 58 49 72 S14 30.34S KITTY HAWK NOT AVBL MANTEO CLEAR 57 49 76 SW13 30.36S $$ NCZ045>047-081-094-103-104-250400- CENTRAL COAST CITY SKY/WX TMP DP RH WIND PRES REMARKS FRISCO CLEAR 60 52 74 SW9 30.38S $$ NCZ095-097-098-100-101-250400- SOUTHERN COAST CITY SKY/WX TMP DP RH WIND PRES REMARKS BEAUFORT CLEAR 61 53 75 SW12 30.39S CEDAR ISLAND NOT AVBL JACKSONVILLE CLEAR 59 52 77 S6 30.39R PINEY ISLAND CLEAR N/A N/A N/A S8 30.38F WILMINGTON CLEAR 56 51 84 S5 30.39S $$ NCZ011>013-027>030-043-044-078>080-089-090>093-098-250400- COASTAL PLAIN CITY SKY/WX TMP DP RH WIND PRES REMARKS AHOSKIE N/A 58 48 69 S6 30.33F CLINTON CLEAR 60 50 69 S5 30.38S ELIZABETHTOWN CLEAR 58 49 73 S5 30.37F GOLDSBORO CLEAR 60 51 74 S6 30.35R GREENVILLE CLEAR 59 50 72 SW9 30.36S HAVELOCK CLEAR 59 51 75 S6 30.39S KENANSVILLE CLEAR 57 50 77 CALM 30.38S KINSTON CLEAR 59 50 71 S8 30.38R NEW BERN CLEAR 58 51 78 S8 30.38S RICHLANDS CLEAR 55 50 83 S6 30.39S ROCKY MOUNT CLEAR 58 49 72 S7 30.35R WASHINGTON CLEAR 59 50 70 SW7 30.37R WHITEVILLE CLEAR 56 49 78 CALM 30.38S $$ AMZ130-135-150-152-154-156-158-170-250-252-270-ANZ085-086-088-633-658-670-250400- MARINE OBSERVATIONS STATION/POSITION TIME TEMP WIND PRES WAVE SWELL AIR SEA DIR/SP/G HT/PER HT/PER (UTC) (F) (DEG/KT/KT) (MB) (FT/S) (FT/S) CHESAPEAKE LIGHT NOT AVBL 64 E VA BEACH 0250 54 51 210/ 19/ 21 1026.2 4/ 4 2/10 DUCK 0248 59 47 200/ 15/ 19 1026.7 2 E DUCK 0300 48 N/A 2/11 OREGON INLET 0248 210/ 13/ 15 N/A 13E OREGON INLT NOT AVBL HATTERAS CG 0248 60 54 210/ 8/ 11 1028.2 DIAMOND BUOY 0250 67 75 200/ 19/ 23 1028.8 4/10 3/10 CAPE LOOKOUT 0300 65 210/ 10/ 12 1028.8 BEAUFORT LAB 0248 61 52 210/ 7/ 11 1028.1 30 SE NEW RVR IN 0208 66 220/ 12/ 16 1029.4 30 SE NEW RVR IN 0243 67 N/A 3/ 7 27 SE WRIGHTSVLE 0208 63 62 190/ 6/ 10 1028.6 5 SE WRIGHTSVLE 0208 60 57 180/ 8/ 10 1029.0 225 S CAPE HAT 0250 64 73 90/ 16/ 19 1030.8 5/ 7 3/ 8 41 SE CHARLESTON 0250 69 71 140/ 14/ 17 1028.3 4/ 8 3/ 8 $$

USA.gov is the U.S. government's official web portal to all federal, state and local government web resources and services.